TimeMST,TemperatureF,Dew PointF,Humidity,Sea Level PressureIn,VisibilityMPH,Wind Direction,Wind SpeedMPH,Gust SpeedMPH,PrecipitationIn,Events,Conditions,WindDirDegrees,DateUTC
12:56 AM,36.0,33.1,89,29.66,10.0,West,15.0,-,N/A,,Clear,280,2012-01-31 07:56:00
1:56 AM,34.0,32.0,92,29.68,10.0,West,10.4,-,N/A,,Clear,280,2012-01-31 08:56:00
2:56 AM,34.0,32.0,92,29.70,10.0,West,13.8,-,N/A,,Clear,280,2012-01-31 09:56:00
3:56 AM,36.0,32.0,86,29.72,10.0,West,12.7,-,N/A,,Mostly Cloudy,280,2012-01-31 10:56:00
4:56 AM,36.0,32.0,86,29.75,10.0,West,11.5,-,N/A,,Mostly Cloudy,270,2012-01-31 11:56:00
5:56 AM,35.1,30.0,82,29.77,10.0,West,9.2,-,N/A,,Mostly Cloudy,280,2012-01-31 12:56:00
6:56 AM,34.0,28.0,79,29.80,10.0,West,13.8,-,N/A,,Clear,280,2012-01-31 13:56:00
7:56 AM,33.1,28.0,82,29.81,10.0,West,13.8,-,N/A,,Clear,280,2012-01-31 14:56:00
8:56 AM,36.0,30.9,82,29.83,10.0,West,15.0,-,N/A,,Partly Cloudy,280,2012-01-31 15:56:00
9:56 AM,39.9,30.0,68,29.84,10.0,West,17.3,25.3,N/A,,Mostly Cloudy,280,2012-01-31 16:56:00
10:56 AM,43.0,28.9,58,29.85,10.0,WNW,18.4,-,N/A,,Partly Cloudy,290,2012-01-31 17:56:00
12:56 PM,46.9,27.0,46,29.84,10.0,West,13.8,-,N/A,,Clear,280,2012-01-31 19:56:00
1:56 PM,48.0,26.1,42,29.85,10.0,WNW,16.1,-,N/A,,Clear,290,2012-01-31 20:56:00
2:56 PM,48.0,24.1,39,29.86,10.0,West,17.3,-,N/A,,Clear,280,2012-01-31 21:56:00
3:56 PM,44.1,24.1,45,29.88,10.0,West,10.4,-,N/A,,Clear,270,2012-01-31 22:56:00
4:56 PM,37.0,24.1,59,29.91,10.0,West,8.1,-,N/A,,Scattered Clouds,270,2012-01-31 23:56:00
5:56 PM,33.1,23.0,66,29.93,10.0,WSW,3.5,-,N/A,,Mostly Cloudy,250,2012-02-01 00:56:00
6:56 PM,33.1,24.1,70,29.94,10.0,WSW,6.9,-,N/A,,Clear,250,2012-02-01 01:56:00
7:56 PM,36.0,26.1,67,29.95,10.0,West,9.2,-,N/A,,Clear,260,2012-02-01 02:56:00
8:56 PM,34.0,26.1,73,29.96,10.0,West,6.9,-,N/A,,Clear,260,2012-02-01 03:56:00
9:56 PM,30.9,24.1,76,29.96,10.0,West,8.1,-,N/A,,Clear,270,2012-02-01 04:56:00
10:56 PM,30.0,23.0,75,29.96,10.0,West,6.9,-,N/A,,Clear,260,2012-02-01 05:56:00
11:56 PM,33.1,24.1,70,29.96,10.0,WSW,10.4,-,N/A,,Scattered Clouds,250,2012-02-01 06:56:00